| time (UTC) | temp F | wind direction | speed MPH | gust MPH | rain 1hr in | rain 24hr in | rain mn in | humidity % | barometer mb |
| 20260902025520 | 72 | 0.0 | 0.0 | 0.00 | 0.08 | 0.08 | 91 | 1014.8 | |
| 20260902024520 | 72 | 0.0 | 0.0 | 0.00 | 0.08 | 0.08 | 89 | 1014.8 | |
| 20260902023520 | 72 | 0.0 | 0.0 | 0.00 | 0.08 | 0.08 | 89 | 1014.9 | |
| 20260902022540 | 72 | 0.0 | 0.0 | 0.00 | 0.08 | 0.08 | 90 | 1014.7 | |
| 20260902021522 | 73 | 0.0 | 0.0 | 0.00 | 0.08 | 0.08 | 90 | 1014.8 | |
| 20260902020520 | 73 | 0.0 | 0.0 | 0.00 | 0.08 | 0.08 | 90 | 1014.9 | |
| 20260902015540 | 73 | 0.0 | 0.0 | 0.00 | 0.08 | 0.08 | 89 | 1014.9 | |
| 20260902014520 | 73 | 0.0 | 0.0 | 0.00 | 0.08 | 0.08 | 88 | 1014.9 | |
| 20260902013520 | 73 | 0.0 | 0.0 | 0.00 | 0.08 | 0.08 | 87 | 1014.9 | |
| 20260902012520 | 73 | 0.0 | 0.0 | 0.00 | 0.08 | 0.08 | 87 | 1014.8 | |
| 20260902011600 | 73 | 0.0 | 0.0 | 0.00 | 0.08 | 0.08 | 86 | 1014.8 | |
| 20260902010540 | 73 | 0.0 | 0.0 | 0.00 | 0.08 | 0.08 | 87 | 1014.7 | |
| 20260902005540 | 74 | 0.0 | 0.0 | 0.00 | 0.08 | 0.08 | 85 | 1014.5 | |
| 20260902004520 | 74 | 0.0 | 0.0 | 0.00 | 0.08 | 0.08 | 85 | 1014.2 | |
| 20260902003520 | 74 | 0.0 | 0.0 | 0.00 | 0.08 | 0.08 | 84 | 1014.1 | |
| 20260902002520 | 74 | 0.0 | 0.0 | 0.00 | 0.08 | 0.08 | 83 | 1013.9 | |
| 20260902001520 | 75 | 0.0 | 0.0 | 0.00 | 0.09 | 0.08 | 83 | 1013.6 | |
| 20260902000520 | 75 | 0.0 | 0.0 | 0.00 | 0.09 | 0.08 | 83 | 1013.5 | |
| 20260901235519 | 76 | 0.0 | 0.0 | 0.00 | 0.09 | 0.08 | 82 | 1013.5 | |
| 20260901234520 | 76 | 0.0 | 0.0 | 0.00 | 0.09 | 0.08 | 82 | 1013.6 | |
| 20260901233520 | 77 | 0.0 | 0.0 | 0.00 | 0.09 | 0.08 | 82 | 1013.7 | |
| 20260901232540 | 77 | 0.0 | 0.0 | 0.00 | 0.09 | 0.08 | 81 | 1013.6 | |
| 20260901231520 | 77 | 0.0 | 0.0 | 0.00 | 0.09 | 0.08 | 81 | 1013.7 | |
| 20260901230520 | 78 | 0.0 | 0.0 | 0.00 | 0.09 | 0.08 | 81 | 1013.8 | |
| 20260901225520 | 78 | 0.0 | 0.0 | 0.00 | 0.09 | 0.08 | 81 | 1013.8 | |
| 20260901224520 | 79 | 0.0 | 0.0 | 0.00 | 0.09 | 0.08 | 81 | 1013.8 | |
| 20260901223520 | 79 | 0.0 | 0.0 | 0.00 | 0.09 | 0.08 | 80 | 1013.8 | |
| 20260901222521 | 79 | 0.0 | 0.0 | 0.00 | 0.09 | 0.08 | 80 | 1013.8 | |
| 20260901221519 | 79 | 0.0 | 0.0 | 0.00 | 0.09 | 0.08 | 80 | 1013.8 | |
| 20260901220540 | 80 | 0.0 | 0.0 | 0.00 | 0.09 | 0.08 | 79 | 1013.7 | |
| 20260901215520 | 80 | 0.0 | 0.0 | 0.00 | 0.09 | 0.08 | 79 | 1013.7 | |
| 20260901214520 | 80 | 0.0 | 3.0 | 0.00 | 0.09 | 0.08 | 79 | 1013.6 | |
| 20260901213520 | 80 | 0.0 | 2.0 | 0.00 | 0.09 | 0.08 | 79 | 1013.5 | |
| 20260901212519 | 80 | 0.0 | 3.0 | 0.00 | 0.09 | 0.08 | 79 | 1013.4 | |
| 20260901211520 | 81 | 0.0 | 3.0 | 0.00 | 0.09 | 0.08 | 79 | 1013.5 | |
| 20260901210540 | 81 | 0.0 | 0.0 | 0.00 | 0.09 | 0.08 | 77 | 1013.4 | |
| 20260901205520 | 81 | 0.0 | 2.0 | 0.00 | 0.09 | 0.08 | 77 | 1013.4 | |
| 20260901204540 | 82 | 0.0 | 1.0 | 0.00 | 0.10 | 0.08 | 76 | 1013.5 | |
| 20260901203540 | 82 | 0.0 | 3.0 | 0.00 | 0.11 | 0.08 | 76 | 1013.7 | |
| 20260901202520 | 82 | 0.0 | 3.0 | 0.00 | 0.14 | 0.08 | 74 | 1013.8 | |
| 20260901201520 | 83 | 0.0 | 2.0 | 0.00 | 0.17 | 0.08 | 74 | 1013.7 | |
| 20260901200540 | 84 | 0.0 | 1.0 | 0.00 | 0.18 | 0.08 | 74 | 1013.6 | |
| 20260901195520 | 84 | 0.0 | 3.0 | 0.00 | 0.19 | 0.08 | 73 | 1013.6 | |
| 20260901194520 | 84 | 68 | 1.0 | 4.0 | 0.00 | 0.19 | 0.08 | 74 | 1013.7 |
| 20260901193540 | 83 | 45 | 2.0 | 5.0 | 0.00 | 0.22 | 0.08 | 76 | 1013.6 |
| 20260901192520 | 82 | 0.0 | 3.0 | 0.00 | 0.23 | 0.08 | 77 | 1013.7 | |
| 20260901191520 | 82 | 0.0 | 4.0 | 0.00 | 0.27 | 0.08 | 77 | 1013.7 | |
| 20260901190540 | 81 | 0.0 | 4.0 | 0.00 | 0.32 | 0.08 | 78 | 1013.7 | |
| 20260901185520 | 81 | 90 | 1.0 | 5.0 | 0.00 | 0.40 | 0.08 | 79 | 1013.8 |
| 20260901184520 | 81 | 90 | 1.0 | 6.0 | 0.00 | 0.40 | 0.08 | 79 | 1013.9 |
| 20260901183519 | 81 | 90 | 1.0 | 3.0 | 0.00 | 0.40 | 0.08 | 78 | 1013.7 |
| 20260901182520 | 81 | 45 | 1.0 | 9.0 | 0.00 | 0.48 | 0.08 | 79 | 1013.8 |
| 20260901181520 | 81 | 0.0 | 4.0 | 0.00 | 0.58 | 0.08 | 80 | 1013.7 | |
| 20260901180520 | 81 | 113 | 1.0 | 7.0 | 0.00 | 0.67 | 0.08 | 80 | 1013.5 |
| 20260901175520 | 80 | 45 | 1.0 | 6.0 | 0.00 | 0.68 | 0.08 | 80 | 1013.5 |
| 20260901174519 | 80 | 248 | 2.0 | 9.0 | 0.00 | 0.69 | 0.08 | 81 | 1013.4 |
| 20260901173540 | 80 | 248 | 1.0 | 8.0 | 0.00 | 0.75 | 0.08 | 83 | 1013.2 |
| 20260901172520 | 80 | 225 | 1.0 | 7.0 | 0.00 | 0.75 | 0.08 | 83 | 1013.2 |
| 20260901171520 | 79 | 0.0 | 4.0 | 0.00 | 0.75 | 0.08 | 83 | 1013.2 | |
| 20260901170520 | 80 | 68 | 1.0 | 7.0 | 0.00 | 0.76 | 0.08 | 82 | 1013.1 |
| 20260901165519 | 81 | 135 | 1.0 | 6.0 | 0.00 | 0.79 | 0.08 | 81 | 1013.1 |
| 20260901164520 | 81 | 248 | 1.0 | 9.0 | 0.00 | 0.80 | 0.08 | 83 | 1013.1 |
| 20260901163540 | 81 | 270 | 1.0 | 6.0 | 0.00 | 0.80 | 0.08 | 86 | 1013.1 |
| 20260901162521 | 81 | 0.0 | 1.0 | 0.00 | 0.80 | 0.08 | 91 | 1012.9 | |
| 20260901161539 | 80 | 0.0 | 0.0 | 0.00 | 0.81 | 0.08 | 93 | 1012.8 | |
| 20260901160520 | 79 | 0.0 | 3.0 | 0.00 | 0.82 | 0.08 | 97 | 1012.7 | |
| 20260901155519 | 78 | 0.0 | 3.0 | 0.00 | 0.82 | 0.08 | 97 | 1012.6 | |
| 20260901154519 | 78 | 0.0 | 0.0 | 0.00 | 0.82 | 0.08 | 98 | 1012.7 | |
| 20260901153520 | 77 | 0.0 | 1.0 | 0.00 | 0.84 | 0.08 | 98 | 1012.7 | |
| 20260901152519 | 76 | 0.0 | 3.0 | 0.00 | 0.87 | 0.08 | 98 | 1012.8 | |
| 20260901151519 | 76 | 0.0 | 2.0 | 0.00 | 0.89 | 0.08 | 97 | 1012.7 | |
| 20260901150519 | 76 | 0.0 | 1.0 | 0.00 | 0.89 | 0.08 | 97 | 1012.8 | |
| 20260901145519 | 76 | 0.0 | 3.0 | 0.00 | 0.91 | 0.08 | 98 | 1012.8 | |
| 20260901144519 | 75 | 0.0 | 1.0 | 0.00 | 0.91 | 0.08 | 98 | 1012.8 | |
| 20260901143519 | 75 | 0.0 | 0.0 | 0.00 | 0.92 | 0.08 | 98 | 1012.8 | |
| 20260901142520 | 74 | 0.0 | 0.0 | 0.00 | 0.94 | 0.08 | 98 | 1012.7 | |
| 20260901141539 | 74 | 0.0 | 0.0 | 0.00 | 0.98 | 0.08 | 98 | 1012.7 | |
| 20260901140520 | 73 | 0.0 | 0.0 | 0.00 | 1.00 | 0.08 | 97 | 1012.7 | |
| 20260901135519 | 73 | 0.0 | 0.0 | 0.00 | 1.01 | 0.08 | 97 | 1012.7 | |
| 20260901134519 | 73 | 0.0 | 0.0 | 0.00 | 1.06 | 0.08 | 97 | 1012.8 | |
| 20260901133519 | 72 | 0.0 | 0.0 | 0.00 | 1.15 | 0.08 | 97 | 1012.8 | |
| 20260901132540 | 72 | 0.0 | 0.0 | 0.00 | 1.18 | 0.08 | 97 | 1012.8 | |
| 20260901131519 | 71 | 0.0 | 0.0 | 0.00 | 1.19 | 0.08 | 97 | 1012.8 | |
| 20260901130520 | 71 | 0.0 | 0.0 | 0.00 | 1.21 | 0.08 | 97 | 1012.9 | |
| 20260901125519 | 71 | 0.0 | 0.0 | 0.00 | 1.26 | 0.08 | 97 | 1012.9 | |
| 20260901124519 | 71 | 0.0 | 0.0 | 0.00 | 1.26 | 0.08 | 97 | 1013.0 | |
| 20260901123520 | 70 | 0.0 | 0.0 | 0.00 | 1.27 | 0.08 | 97 | 1013.0 | |
| 20260901122519 | 70 | 0.0 | 0.0 | 0.00 | 1.27 | 0.08 | 97 | 1013.0 | |
| 20260901121520 | 70 | 0.0 | 0.0 | 0.00 | 1.27 | 0.08 | 97 | 1013.0 | |
| 20260901120520 | 70 | 0.0 | 0.0 | 0.00 | 1.27 | 0.08 | 97 | 1012.9 | |
| 20260901115519 | 69 | 0.0 | 0.0 | 0.00 | 1.27 | 0.08 | 97 | 1012.8 | |
| 20260901114519 | 69 | 0.0 | 0.0 | 0.00 | 1.27 | 0.08 | 97 | 1012.9 | |
| 20260901113519 | 69 | 0.0 | 0.0 | 0.00 | 1.27 | 0.08 | 97 | 1012.9 | |
| 20260901112539 | 69 | 0.0 | 0.0 | 0.00 | 1.27 | 0.08 | 97 | 1012.8 | |
| 20260901111519 | 69 | 0.0 | 0.0 | 0.00 | 1.27 | 0.08 | 97 | 1012.7 | |
| 20260901110519 | 69 | 0.0 | 0.0 | 0.00 | 1.27 | 0.08 | 97 | 1012.5 | |
| 20260901105519 | 69 | 0.0 | 0.0 | 0.00 | 1.27 | 0.08 | 96 | ||
| 20260901104540 | 69 | 0.0 | 0.0 | 0.00 | 1.27 | 0.08 | 96 | ||
| 20260901103519 | 69 | 0.0 | 0.0 | 0.00 | 1.27 | 0.08 | 96 | ||
| 20260901102519 | 69 | 0.0 | 0.0 | 0.01 | 1.27 | 0.08 | 96 | 1012.4 | |
| 20260901101519 | 69 | 0.0 | 0.0 | 0.01 | 1.27 | 0.08 | 96 | 1012.3 | |
| 20260901100519 | 69 | 0.0 | 0.0 | 0.01 | 1.27 | 0.08 | 96 | 1012.4 | |
| 20260901095639 | 69 | 0.0 | 0.0 | 0.01 | 1.27 | 0.08 | 96 | 1012.4 | |
| 20260901094559 | 69 | 0.0 | 0.0 | 0.02 | 1.27 | 0.08 | 96 | 1012.5 | |
| 20260901093539 | 69 | 0.0 | 0.0 | 0.02 | 1.27 | 0.08 | 96 | 1012.4 | |
| 20260901092519 | 69 | 0.0 | 0.0 | 0.01 | 1.26 | 0.07 | 96 | 1012.5 | |
| 20260901091520 | 69 | 0.0 | 0.0 | 0.01 | 1.26 | 0.07 | 96 | 1012.7 | |
| 20260901090519 | 69 | 0.0 | 0.0 | 0.01 | 1.26 | 0.07 | 96 | 1012.5 | |
| 20260901085519 | 69 | 0.0 | 0.0 | 0.01 | 1.26 | 0.07 | 96 | 1012.5 | |
| 20260901084519 | 68 | 0.0 | 0.0 | 0.03 | 1.25 | 0.06 | 96 | 1012.5 | |
| 20260901083519 | 68 | 0.0 | 0.0 | 0.03 | 1.25 | 0.06 | 96 | 1012.3 | |
| 20260901082519 | 68 | 0.0 | 0.0 | 0.03 | 1.25 | 0.06 | 96 | 1012.3 | |
| 20260901081520 | 68 | 0.0 | 0.0 | 0.03 | 1.25 | 0.06 | 96 | 1012.4 | |
| 20260901080520 | 68 | 0.0 | 0.0 | 0.03 | 1.25 | 0.06 | 96 | 1012.4 | |
| 20260901075519 | 68 | 0.0 | 0.0 | 0.03 | 1.25 | 0.06 | 96 | 1013.0 | |
| 20260901074519 | 68 | 0.0 | 0.0 | 0.00 | 1.22 | 0.03 | 96 | 1012.9 | |
| 20260901073539 | 68 | 0.0 | 0.0 | 0.00 | 1.22 | 0.03 | 96 | 1013.0 | |
| 20260901072519 | 68 | 0.0 | 0.0 | 0.00 | 1.22 | 0.03 | 96 | 1012.9 | |
| 20260901071520 | 68 | 0.0 | 0.0 | 0.00 | 1.22 | 0.03 | 96 | 1013.1 | |
| 20260901070519 | 68 | 0.0 | 0.0 | 0.00 | 1.22 | 0.03 | 96 | 1013.5 | |
| 20260901065519 | 68 | 0.0 | 0.0 | 0.00 | 1.22 | 0.03 | 96 | 1013.5 | |
| 20260901064539 | 68 | 0.0 | 0.0 | 0.00 | 1.22 | 0.03 | 96 | 1013.8 | |
| 20260901063519 | 68 | 0.0 | 0.0 | 0.01 | 1.22 | 0.03 | 96 | 1014.0 | |
| 20260901062519 | 68 | 0.0 | 0.0 | 0.01 | 1.22 | 0.03 | 96 | 1014.1 | |
| 20260901061519 | 68 | 0.0 | 0.0 | 0.02 | 1.22 | 0.03 | 96 | 1014.1 | |
| 20260901060519 | 68 | 0.0 | 0.0 | 0.03 | 1.22 | 0.03 | 96 | 1014.1 | |
| 20260901055519 | 68 | 0.0 | 0.0 | 0.03 | 1.22 | 0.03 | 96 | 1014.1 | |
| 20260901054519 | 68 | 0.0 | 0.0 | 0.03 | 1.22 | 0.03 | 96 | 1014.2 | |
| 20260901053539 | 68 | 0.0 | 0.0 | 0.02 | 1.21 | 0.02 | 96 | 1014.4 | |
| 20260901052519 | 68 | 0.0 | 0.0 | 0.02 | 1.21 | 0.02 | 96 | 1014.6 | |
| 20260901051519 | 68 | 0.0 | 0.0 | 0.01 | 1.20 | 0.01 | 96 | 1014.8 | |
| 20260901050520 | 68 | 0.0 | 0.0 | 0.00 | 1.19 | 0.00 | 96 | 1014.7 | |
| 20260901045539 | 68 | 0.0 | 0.0 | 0.00 | 1.19 | 0.00 | 95 | 1014.7 | |
| 20260901044519 | 69 | 0.0 | 0.0 | 0.00 | 1.19 | 0.00 | 95 | 1014.7 | |
| 20260901043519 | 69 | 0.0 | 0.0 | 0.00 | 1.19 | 0.00 | 95 | 1014.7 | |
| 20260901042559 | 69 | 0.0 | 0.0 | 0.00 | 1.19 | 0.00 | 96 | 1014.6 | |
| 20260901041519 | 69 | 0.0 | 0.0 | 0.00 | 1.19 | 0.00 | 96 | 1014.6 | |
| 20260901040519 | 69 | 0.0 | 0.0 | 0.00 | 1.19 | 0.00 | 96 | 1014.5 | |
| 20260901035520 | 69 | 0.0 | 0.0 | 0.00 | 1.19 | 1.19 | 96 | 1014.7 | |
| 20260901034540 | 69 | 0.0 | 0.0 | 0.00 | 1.19 | 1.19 | 95 | 1014.9 | |
| 20260901033520 | 69 | 0.0 | 0.0 | 0.00 | 1.19 | 1.19 | 95 | 1015.1 | |
| 20260901032540 | 69 | 0.0 | 0.0 | 0.00 | 1.19 | 1.19 | 95 | 1015.1 | |
| 20260901031541 | 69 | 0.0 | 0.0 | 0.00 | 1.19 | 1.19 | 95 | 1015.3 | |
| 20260901030520 | 69 | 0.0 | 0.0 | 0.00 | 1.19 | 1.19 | 95 | 1015.2 |